Weather History for Miramar MCAS, CA

Change the Weather History Date:

Friday, August 2, 2013

  Actual Average Record
Temperature  
Mean Temperature 68 °F -  
Max Temperature 75 °F 78 °F 91 °F (1997)
Min Temperature 62 °F 60 °F 57 °F (1998)
Cooling Degree Days 4    
Growing Degree Days 18 (Base 50)    
Moisture  
Dew Point 56 °F    
Average Humidity 67    
Maximum Humidity 80    
Minimum Humidity 50    
Precipitation  
Precipitation 0.00 in - - ()
Sea Level Pressure  
Sea Level Pressure 29.93 in    
Wind  
Wind Speed 4 mph (SSW)    
Max Wind Speed 10 mph    
Max Gust Speed 17 mph    
Visibility 10 miles    
Events      
Averages and records for this station are not official NWS values.
T = Trace of Precipitation, MM = Missing Value Source: NWS Daily Summary

Daily Weather History Graph

Daily Weather History Graph

Search for Another Location

Airport:

Trip Planner

Search our weather history database for the weather conditions in past years. The results will help you decide how hot, cold, wet, or windy it might be!

Date:

Astronomy

Aug. 02, 2013 Rise Set
Actual Time 6:03 AM PDT 7:45 PM PDT
Civil Twilight 5:36 AM PDT 8:12 PM PDT
Nautical Twilight 5:03 AM PDT 8:45 PM PDT
Astronomical Twilight 4:29 AM PDT 9:19 PM PDT
Moon 2:29 AM PDT (8/2) 4:44 PM PDT (8/2)
Length of Visible Light 14h 36m
Length of Day
13h 42m
Waning Crescent, 15% of the Moon is Illuminated
Aug 2
Waning Crescent
Aug 6
New
Aug 14
First Quarter
Aug 20
Full
Aug 28
Last Quarter

Hourly Weather History & Observations

Time (PDT) Temp. Dew Point Humidity Pressure Visibility Wind Dir Wind Speed Gust Speed Precip Events Conditions
12:55 AM 64.0 °F 57.0 °F 78% 29.95 in 10.0 mi Variable 3.5 mph - N/A   Overcast
1:55 AM 64.0 °F 55.9 °F 75% 29.93 in 10.0 mi SSE 3.5 mph - N/A   Overcast
2:55 AM 64.0 °F 55.9 °F 75% 29.92 in 10.0 mi SSW 4.6 mph - N/A   Overcast
3:55 AM 64.0 °F 55.9 °F 75% 29.91 in 10.0 mi SE 3.5 mph - N/A   Overcast
4:55 AM 64.0 °F 55.0 °F 73% 29.90 in 10.0 mi South 3.5 mph - N/A   Mostly Cloudy
5:55 AM 63.0 °F 55.9 °F 78% 29.92 in 10.0 mi Calm Calm - N/A   Overcast
6:55 AM 64.0 °F 55.9 °F 75% 29.93 in 10.0 mi Calm Calm - N/A   Overcast
7:55 AM 66.0 °F 55.9 °F 70% 29.94 in 9.0 mi Calm Calm - N/A   Overcast
8:55 AM 66.9 °F 55.0 °F 66% 29.95 in 8.0 mi Variable 3.5 mph - N/A   Mostly Cloudy
9:55 AM 72.0 °F 55.0 °F 55% 29.94 in 10.0 mi SW 4.6 mph - N/A   Scattered Clouds
10:55 AM 75.0 °F 55.0 °F 50% 29.94 in 9.0 mi SSW 9.2 mph 17.3 mph N/A   Scattered Clouds
11:55 AM 73.9 °F 55.0 °F 52% 29.94 in 10.0 mi South 8.1 mph - N/A   Scattered Clouds
12:55 PM 75.9 °F 55.9 °F 50% 29.94 in 10.0 mi SW 10.4 mph 16.1 mph N/A   Scattered Clouds
1:55 PM 73.0 °F 55.0 °F 53% 29.93 in 10.0 mi SSW 8.1 mph - N/A   Scattered Clouds
2:55 PM 72.0 °F 55.0 °F 55% 29.93 in 10.0 mi SW 9.2 mph - N/A   Scattered Clouds
3:55 PM 72.0 °F 55.0 °F 55% 29.92 in 10.0 mi SW 10.4 mph - N/A   Scattered Clouds
4:55 PM 71.1 °F 55.0 °F 57% 29.92 in 10.0 mi SSW 6.9 mph - N/A   Scattered Clouds
5:55 PM 70.0 °F 55.0 °F 59% 29.92 in 10.0 mi SSW 6.9 mph - N/A   Scattered Clouds
6:55 PM 66.9 °F 55.9 °F 68% 29.92 in 10.0 mi WSW 8.1 mph - N/A   Scattered Clouds
7:55 PM 64.0 °F 55.9 °F 75% 29.93 in 10.0 mi SW 5.8 mph - N/A   Scattered Clouds
8:55 PM 62.1 °F 55.9 °F 80% 29.95 in 10.0 mi SW 3.5 mph - N/A   Scattered Clouds
9:55 PM 63.0 °F 55.9 °F 78% 29.96 in 10.0 mi Calm Calm - N/A   Mostly Cloudy
10:55 PM 63.0 °F 55.9 °F 78% 29.96 in 10.0 mi Calm Calm - N/A   Overcast
11:55 PM 63.0 °F 55.9 °F 78% 29.97 in 10.0 mi Calm Calm - N/A   Overcast